METEOR 2-5 DEB, 45511

Orbit data source: Space-Track

METEOR 2-5 DEB, 45511 is space debris in LEO originally from a launch on Wed, 31 Oct 1979 UTC launched from the Plesetsk Missile And Space Complex (PKMTR). Debris objects in space refer to the collection of defunct objects orbiting the Earth. Examples of debris include non-operational satellites, rocket bodies, and fragments generated from explosions, collisions, or faulty payload assembly.

Loading next visibility...
Identifier
45511, 1979-095CT
Orbit
LEO
Country
Flag of CISCIS
Related business
Manufacturer
Unknown
Mission
Spacecraft
Bus & Motor
Unknown
Mass
Unknown
Launch date (UTC)
1979-10-31 (47 years ago)
Launch vehicle
Unknown
Launch site
Plesetsk Missile And Space Complex (PKMTR)
Object type
Payload
Rocket body
Debris
Shape & HBR
Unknown shape, 0.1 m
Radar Cross Section
Small (<0.1 m²)

Expand to show TLE details & history
Last TLE update: 5 days ago

TLE from 5 days ago
0 METEOR 2-5 DEB
1 45511U 79095CT  26168.40730879  .00000942  00000-0  40822-3 0  9991
2 45511  81.2190 207.8046 0012625 141.1505 219.0584 14.23528556439780
Epoch: 2026-06-17T09:46Z
TLE epoch observation values (Epoch: 2026-06-17T09:46:31.479Z)
Latitude
0.00006°
Longitude
155.50801°
Altitude
823.417 km
Speed
7.438 km/s
True Right ascension
13h 51m 13s
True Declination
0° 00' 00"
Sunlit
Object was in full shadow at epoch
Visualization orbit readout
Latitude
Unknown
Longitude
Unknown
Altitude
Unknown
Speed
Unknown
Apparent Right ascension
Unknown
Apparent Declination
Unknown
Sunlit
N/A
Visualization observer readout
Local Sidereal Time
21:42:21
Azimuth
Unknown
Elevation
Unknown
Doppler factor
Unknown
Orbital elements
Apogee altitude
819.677 km
Perigee altitude
801.526 km
Semi-major axis
7,188.738 km
Eccentricity
0.00126
Inclination
81.219°
RAAN
207.8046°
Arg. of periapsis
141.1505°
True anomaly
218.96735°
Mean anomaly
219.0584°
Eccentric anomaly
219.01286°
Mean motion
3.56094 °/min
Orbital period
101.1 mins
BSTAR
0.00040822
Loading maneuver chart data...
Computing Atmospheric mass density...

Documentation

Showing up to 5 results
|